Location: ??? ?????
(30.6482°N, 60.5850°E)
Time: 06:11:01
(UTC+00:00)

ARIANE 5 R/B - Pass Details

Date: 09 April 2020
Orbit: 749 x 795 km, 98.6° (Epoch: 24 May)

Event Time Altitude Azimuth Distance (km) Brightness Sun altitude
Rises 22:35:39 0° 12° (NNE) 3,296 6.4 -36.1°
Reaches altitude 10° 22:37:59 10° 12° (NNE) 2,365 5.5 -35.7°
Enters shadow 22:40:21 28° 12° (NNE) 1,463 4.2 -35.3°
